Date String (YYYY-MM-DD hh:mm:ss) UTC,Instrument flags,Ambient pressure (hPa),Sample flow (lpm),Bypass flow (lpm),Sample temperature (°C),Ambient temperature (°C),ASC tube jacket temperature (°C),LED temperature (°C),Box temperature (°C),Sample RH (%),Span deviation,Mass concentration (μg/m³),Mass concentration (μg/m³),Mass concentration (μg/m³)
DateTimeUTC,F1_M11,P_M11,Q1_M11,Q2_M11,T1_M11,T2_M11,T3_M11,T4_M11,T5_M11,U1_M11,ZSPAN_M11,X0_M11,X2_M11,X1_M11
2022-02-09 19:00:00,,0825.9,4.99,0.00,26.0,25.2,00.0,34.8,27.8,10.3,0000.0,0013.24,0004.55,0003.59
2022-02-09 19:01:00,,0825.9,5.02,0.00,26.0,25.2,00.0,34.8,27.9,10.5,0000.0,0012.45,0004.53,0003.58
2022-02-09 19:02:00,,0825.9,5.00,0.00,26.0,25.2,00.0,34.8,27.9,10.5,0000.0,0012.37,0004.56,0003.57
2022-02-09 19:03:00,,0825.9,4.99,0.00,26.0,25.2,00.0,34.9,27.9,10.6,0000.0,0012.54,0004.55,0003.57
2022-02-09 19:04:00,,0825.9,4.99,0.00,26.0,25.3,00.0,34.9,27.9,10.3,0000.0,0011.82,0004.56,0003.57
2022-02-09 19:05:00,,0825.9,5.02,0.00,26.1,25.3,00.0,34.9,27.9,10.5,0000.0,0011.64,0004.55,0003.57
2022-02-09 19:06:00,,0825.9,5.00,0.00,26.1,25.3,00.0,34.9,27.9,10.7,0000.0,0011.91,0004.57,0003.57
2022-02-09 19:07:00,,0825.8,4.99,0.00,26.1,25.3,00.0,34.9,28.0,10.5,0000.0,0012.32,0004.57,0003.58
2022-02-09 19:08:00,,0825.7,5.00,0.00,26.1,25.3,00.0,34.9,28.0,10.2,0000.0,0012.65,0004.54,0003.57
2022-02-09 19:09:00,,0825.6,5.01,0.00,26.1,25.3,00.0,34.9,28.0,10.1,0000.0,0011.89,0004.47,0003.56
2022-02-09 19:10:00,,0825.5,4.99,0.00,26.1,25.4,00.0,35.0,28.0,10.2,0000.0,0011.61,0004.44,0003.54
2022-02-09 19:11:00,,0825.6,4.99,0.00,26.2,25.4,00.0,35.0,28.0,10.4,0000.0,0012.37,0004.52,0003.53
2022-02-09 19:12:00,,0825.6,5.01,0.00,26.2,25.4,00.0,35.0,28.0,10.1,0000.0,0013.03,0004.53,0003.51
2022-02-09 19:13:00,,0825.6,5.00,0.00,26.2,25.4,00.0,35.0,28.1,09.8,0000.0,0013.21,0004.47,0003.49
2022-02-09 19:14:00,,0825.6,4.99,0.00,26.2,25.4,00.0,35.0,28.1,10.1,0000.0,0012.94,0004.40,0003.46
2022-02-09 19:15:00,,0825.7,5.00,0.00,26.2,25.4,00.0,35.1,28.1,10.3,0000.0,0013.08,0004.36,0003.44
2022-02-09 19:16:00,,0825.6,5.01,0.00,26.2,25.5,00.0,35.1,28.1,10.6,0000.0,0013.41,0004.32,0003.42
2022-02-09 19:17:00,,0825.6,4.99,0.00,26.2,25.5,00.0,35.1,28.1,10.1,0000.0,0013.10,0004.32,0003.40
2022-02-09 19:18:00,,0825.6,5.02,0.00,26.3,25.5,00.0,35.1,28.2,10.0,0000.0,0012.83,0004.33,0003.39
2022-02-09 19:19:00,,0825.6,4.99,0.00,26.3,25.5,00.0,35.1,28.2,10.2,0000.0,0012.91,0004.36,0003.38
2022-02-09 19:20:00,,0825.6,5.00,0.00,26.3,25.5,00.0,35.1,28.2,10.3,0000.0,0013.56,0004.38,0003.37
2022-02-09 19:21:00,,0825.6,5.00,0.00,26.3,25.5,00.0,35.2,28.2,10.2,0000.0,0014.66,0004.39,0003.37
2022-02-09 19:22:00,,0825.6,4.99,0.00,26.3,25.5,00.0,35.2,28.2,10.1,0000.0,0015.39,0004.29,0003.36
2022-02-09 19:23:00,,0825.6,5.00,0.00,26.3,25.5,00.0,35.2,28.2,10.2,0000.0,0015.02,0004.26,0003.36
2022-02-09 19:24:00,,0825.6,5.01,0.00,26.3,25.6,00.0,35.2,28.2,10.1,0000.0,0014.65,0004.26,0003.35
2022-02-09 19:25:00,,0825.6,4.99,0.00,26.4,25.6,00.0,35.2,28.2,10.0,0000.0,0014.77,0004.30,0003.35
2022-02-09 19:26:00,,0825.6,5.00,0.00,26.4,25.6,00.0,35.2,28.2,09.7,0000.0,0014.78,0004.32,0003.35
2022-02-09 19:27:00,,0825.6,5.02,0.00,26.4,25.6,00.0,35.2,28.3,09.8,0000.0,0014.80,0004.31,0003.34
2022-02-09 19:28:00,,0825.6,4.99,0.00,26.4,25.7,00.0,35.3,28.3,09.9,0000.0,0015.42,0004.29,0003.33
2022-02-09 19:29:00,,0825.6,4.99,0.00,26.4,25.7,00.0,35.3,28.3,09.8,0000.0,0015.33,0004.27,0003.32
2022-02-09 19:30:00,,0825.6,5.01,0.00,26.4,25.7,00.0,35.3,28.3,09.8,0000.0,0014.77,0004.25,0003.31
2022-02-09 19:31:00,,0825.6,5.00,0.00,26.5,25.7,00.0,35.3,28.3,10.1,0000.0,0014.97,0004.29,0003.31
2022-02-09 19:32:00,,0825.6,4.99,0.00,26.5,25.7,00.0,35.3,28.4,10.0,0000.0,0014.37,0004.31,0003.32
2022-02-09 19:33:00,,0825.6,5.02,0.00,26.5,25.8,00.0,35.3,28.4,10.2,0000.0,0013.16,0004.32,0003.33
2022-02-09 19:34:00,,0825.5,5.00,0.00,26.5,25.8,00.0,35.3,28.4,10.2,0000.0,0012.81,0004.30,0003.34
2022-02-09 19:35:00,,0825.6,4.99,0.00,26.5,25.8,00.0,35.4,28.4,10.4,0000.0,0013.14,0004.36,0003.35
2022-02-09 19:36:00,,0825.5,5.00,0.00,26.5,25.8,00.0,35.4,28.4,10.3,0000.0,0012.88,0004.35,0003.36
2022-02-09 19:37:00,,0825.5,5.00,0.00,26.6,25.8,00.0,35.4,28.4,10.4,0000.0,0012.32,0004.34,0003.37
2022-02-09 19:38:00,,0825.5,5.00,0.00,26.6,25.8,00.0,35.4,28.5,10.4,0000.0,0011.42,0004.32,0003.38
2022-02-09 19:39:00,,0825.5,5.00,0.00,26.6,25.8,00.0,35.4,28.5,09.9,0000.0,0010.70,0004.29,0003.40
2022-02-09 19:40:00,,0825.5,5.01,0.00,26.6,25.8,00.0,35.5,28.5,10.0,0000.0,0011.35,0004.27,0003.40
2022-02-09 19:41:00,,0825.5,4.99,0.00,26.6,25.8,00.0,35.5,28.5,10.0,0000.0,0011.67,0004.26,0003.40
2022-02-09 19:42:00,,0825.5,5.01,0.00,26.6,25.9,00.0,35.5,28.5,10.0,0000.0,0010.91,0004.19,0003.37
2022-02-09 19:43:00,,0825.5,5.00,0.00,26.6,25.9,00.0,35.5,28.5,09.9,0000.0,0010.78,0004.17,0003.36
2022-02-09 19:44:00,,0825.5,5.00,0.00,26.7,25.9,00.0,35.5,28.5,10.1,0000.0,0011.02,0004.20,0003.35
2022-02-09 19:45:00,,0825.4,4.99,0.00,26.7,25.9,00.0,35.5,28.5,10.2,0000.0,0011.55,0004.19,0003.33
2022-02-09 19:46:00,,0825.4,5.01,0.00,26.7,25.9,00.0,35.5,28.5,10.3,0000.0,0011.14,0004.13,0003.32
2022-02-09 19:47:00,,0825.4,5.01,0.00,26.7,25.9,00.0,35.5,28.6,10.4,0000.0,0011.02,0004.10,0003.30
2022-02-09 19:48:00,,0825.5,5.00,0.00,26.7,25.9,00.0,35.6,28.6,10.2,0000.0,0010.93,0004.06,0003.29
2022-02-09 19:49:00,,0825.4,5.01,0.00,26.7,26.0,00.0,35.6,28.6,10.2,0000.0,0011.04,0004.07,0003.28
2022-02-09 19:50:00,,0825.4,5.00,0.00,26.7,26.0,00.0,35.6,28.6,10.1,0000.0,0011.48,0004.06,0003.27
2022-02-09 19:51:00,,0825.4,4.99,0.00,26.8,26.0,00.0,35.6,28.6,10.3,0000.0,0010.97,0004.05,0003.26
2022-02-09 19:52:00,,0825.4,5.01,0.00,26.8,26.0,00.0,35.6,28.6,10.6,0000.0,0010.94,0004.04,0003.27
2022-02-09 19:53:00,,0825.4,4.99,0.00,26.8,26.0,00.0,35.6,28.6,10.2,0000.0,0010.85,0004.01,0003.28
2022-02-09 19:54:00,,0825.4,5.00,0.00,26.8,26.0,00.0,35.7,28.7,10.1,0000.0,0010.51,0004.03,0003.28
2022-02-09 19:55:00,,0825.4,5.00,0.00,26.8,26.0,00.0,35.7,28.7,10.3,0000.0,0010.42,0004.02,0003.27
2022-02-09 19:56:00,,0825.4,5.00,0.00,26.8,26.0,00.0,35.7,28.7,10.3,0000.0,0009.98,0004.00,0003.27
2022-02-09 19:57:00,,0825.4,5.03,0.00,26.9,26.1,00.0,35.7,28.7,10.4,0000.0,0010.18,0003.99,0003.26
2022-02-09 19:58:00,,0825.4,5.00,0.00,26.9,26.1,00.0,35.7,28.7,10.5,0000.0,0010.74,0003.95,0003.25
2022-02-09 19:59:00,,0825.4,5.01,0.00,26.9,26.1,00.0,35.7,28.7,10.6,0000.0,0011.03,0003.95,0003.24
